Weather History for Chipley, FL

Change the Weather History Date:

Sunday, February 17, 2013

  Actual Average (KMAI) Record (KMAI)
Temperature  
Mean Temperature 52 °F 55 °F  
Max Temperature 62 °F 67 °F 80 °F (2006)
Min Temperature 41 °F 43 °F 21 °F (2007)
Degree Days  
Heating Degree Days 14    
Month to date heating degree days  
Since 1 July heating degree days  
Cooling Degree Days 0    
Month to date cooling degree days  
Year to date cooling degree days  
Growing Degree Days 2 (Base 50)    
Moisture  
Dew Point 30 °F    
Average Humidity 44    
Maximum Humidity 61    
Minimum Humidity 30    
Precipitation  
Precipitation 0.00 in 0.17 in 0.98 in (2008)
Month to date precipitation 2.87  
Year to date precipitation 7.91  
Sea Level Pressure  
Sea Level Pressure 30.31 in    
Wind  
Wind Speed 5 mph (SE)    
Max Wind Speed 13 mph    
Max Gust Speed -    
Visibility 10 miles    
Events      
T = Trace of Precipitation, MM = Missing Value Source: NWS Daily Summary

Daily Weather History Graph

Daily Weather History Graph

Search for Another Location

Airport:

Trip Planner

Search our weather history database for the weather conditions in past years. The results will help you decide how hot, cold, wet, or windy it might be!

Date:

Astronomy

Feb. 17, 2013 Rise Set
Actual Time 6:21 AM CST 5:32 PM CST
Civil Twilight 5:56 AM CST 5:56 PM CST
Nautical Twilight 5:28 AM CST 6:24 PM CST
Astronomical Twilight 5:00 AM CST 6:52 PM CST
Moon 10:45 AM CST (2/17) No Moon Set
Length of Visible Light 12h 00m
Length of Day
11h 11m
Waxing Crescent, 49% of the Moon is Illuminated
Feb 17
Waxing Crescent
Feb 17
First Quarter
Feb 25
Full
Mar 4
Last Quarter
Mar 11
New

Hourly Weather History & Observations

Time (CST) Temp. Windchill Dew Point Humidity Pressure Visibility Wind Dir Wind Speed Gust Speed Precip Events Conditions
12:15 AM 46.4 °F - 26.6 °F 46% 30.31 in 10.0 mi Calm Calm - N/A   Clear
12:35 AM 44.6 °F - 26.6 °F 49% 30.31 in 10.0 mi Calm Calm - N/A   Clear
12:55 AM 46.4 °F - 23.0 °F 40% 30.31 in 10.0 mi Calm Calm - N/A   Clear
1:15 AM 46.4 °F - 23.0 °F 40% 30.31 in 10.0 mi Calm Calm - N/A   Clear
1:35 AM 46.4 °F 45.2 °F 21.2 °F 37% 30.31 in 10.0 mi NNE 3.5 mph - N/A   Clear
1:55 AM 46.4 °F 45.2 °F 23.0 °F 40% 30.31 in 10.0 mi ENE 3.5 mph - N/A   Clear
2:15 AM 46.4 °F 45.2 °F 23.0 °F 40% 30.31 in 10.0 mi ENE 3.5 mph - N/A   Clear
2:35 AM 46.4 °F 43.5 °F 21.2 °F 37% 30.31 in 10.0 mi ENE 5.8 mph - N/A   Clear
2:55 AM 44.6 °F 40.7 °F 21.2 °F 39% 30.31 in 10.0 mi NE 6.9 mph - N/A   Clear
3:15 AM 44.6 °F 41.4 °F 21.2 °F 39% 30.31 in 10.0 mi NE 5.8 mph - N/A   Clear
3:35 AM 42.8 °F 38.6 °F 21.2 °F 42% 30.32 in 10.0 mi NE 6.9 mph - N/A   Clear
3:55 AM 42.8 °F 37.5 °F 21.2 °F 42% 30.31 in 10.0 mi NE 9.2 mph - N/A   Clear
4:15 AM 42.8 °F 38.6 °F 21.2 °F 42% 30.32 in 10.0 mi NE 6.9 mph - N/A   Clear
4:35 AM 41.0 °F 37.1 °F 23.0 °F 49% 30.32 in 10.0 mi NE 5.8 mph - N/A   Clear
4:55 AM 41.0 °F 38.0 °F 24.8 °F 53% 30.32 in 10.0 mi ENE 4.6 mph - N/A   Clear
5:15 AM 41.0 °F 37.1 °F 24.8 °F 53% 30.32 in 10.0 mi ENE 5.8 mph - N/A   Clear
5:35 AM 41.0 °F 38.0 °F 26.6 °F 57% 30.32 in 10.0 mi East 4.6 mph - N/A   Clear
5:55 AM 41.0 °F 39.0 °F 26.6 °F 57% 30.32 in 10.0 mi ENE 3.5 mph - N/A   Clear
6:15 AM 42.8 °F 39.3 °F 28.4 °F 57% 30.33 in 10.0 mi East 5.8 mph - N/A   Clear
6:35 AM 42.8 °F 37.5 °F 30.2 °F 61% 30.33 in 10.0 mi East 9.2 mph - N/A   Clear
6:55 AM 42.8 °F 40.1 °F 30.2 °F 61% 30.33 in 10.0 mi East 4.6 mph - N/A   Clear
7:15 AM 42.8 °F 40.1 °F 30.2 °F 61% 30.34 in 10.0 mi SSE 4.6 mph - N/A   Clear
7:35 AM 42.8 °F 38.6 °F 28.4 °F 57% 30.35 in 10.0 mi SSE 6.9 mph - N/A   Clear
7:55 AM 44.6 °F 42.2 °F 28.4 °F 53% 30.36 in 10.0 mi SE 4.6 mph - N/A   Clear
8:15 AM 44.6 °F 40.7 °F 28.4 °F 53% 30.37 in 10.0 mi SE 6.9 mph - N/A   Clear
8:35 AM 46.4 °F 44.3 °F 28.4 °F 50% 30.37 in 10.0 mi SE 4.6 mph - N/A   Clear
8:55 AM 48.2 °F - 26.6 °F 43% 30.38 in 10.0 mi SSE 4.6 mph - N/A   Clear
9:15 AM 48.2 °F - 26.6 °F 43% 30.38 in 10.0 mi SSE 5.8 mph - N/A   Clear
9:35 AM 51.8 °F - 28.4 °F 41% 30.38 in 10.0 mi SSE 4.6 mph - N/A   Clear
9:55 AM 51.8 °F - 28.4 °F 41% 30.38 in 10.0 mi SSE 6.9 mph - N/A   Clear
10:15 AM 53.6 °F - 26.6 °F 35% 30.38 in 10.0 mi SSE 5.8 mph - N/A   Clear
10:35 AM 53.6 °F - 26.6 °F 35% 30.38 in 10.0 mi South 3.5 mph - N/A   Clear
10:55 AM 55.4 °F - 26.6 °F 33% 30.38 in 10.0 mi SSE 5.8 mph - N/A   Clear
11:15 AM 55.4 °F - 26.6 °F 33% 30.38 in 10.0 mi East 4.6 mph - N/A   Clear
11:35 AM 55.4 °F - 26.6 °F 33% 30.37 in 10.0 mi ENE 4.6 mph - N/A   Clear
11:55 AM 57.2 °F - 28.4 °F 33% 30.36 in 10.0 mi SSE 4.6 mph - N/A   Clear
12:15 PM 57.2 °F - 28.4 °F 33% 30.35 in 10.0 mi SE 4.6 mph - N/A   Clear
12:35 PM 59.0 °F - 28.4 °F 31% 30.33 in 9.0 mi South 5.8 mph - N/A   Clear
12:55 PM 59.0 °F - 28.4 °F 31% 30.32 in 10.0 mi South 5.8 mph - N/A   Clear
1:15 PM 60.8 °F - 30.2 °F 31% 30.31 in 10.0 mi South 9.2 mph - N/A   Clear
1:35 PM 60.8 °F - 30.2 °F 31% 30.30 in 10.0 mi SSE 6.9 mph - N/A   Clear
1:55 PM 60.8 °F - 30.2 °F 31% 30.29 in 10.0 mi South 6.9 mph - N/A   Clear
2:15 PM 60.8 °F - 32.0 °F 34% 30.28 in 10.0 mi South 5.8 mph - N/A   Clear
2:35 PM 62.6 °F - 30.2 °F 30% 30.28 in 10.0 mi SSE 12.7 mph - N/A   Clear
2:55 PM 60.8 °F - 33.8 °F 36% 30.27 in 10.0 mi South 9.2 mph - N/A   Clear
3:15 PM 60.8 °F - 32.0 °F 34% 30.27 in 10.0 mi South 8.1 mph - N/A   Clear
3:35 PM 60.8 °F - 33.8 °F 36% 30.26 in 10.0 mi SE 8.1 mph - N/A   Clear
3:55 PM 60.8 °F - 33.8 °F 36% 30.26 in 10.0 mi SSE 10.4 mph - N/A   Clear
4:15 PM 60.8 °F - 32.0 °F 34% 30.26 in 10.0 mi SSE 8.1 mph - N/A   Clear
4:35 PM 60.8 °F - 32.0 °F 34% 30.25 in 10.0 mi SSE 11.5 mph - N/A   Clear
4:55 PM 59.0 °F - 32.0 °F 36% 30.25 in 10.0 mi South 8.1 mph - N/A   Clear
5:15 PM 57.2 °F - 32.0 °F 38% 30.26 in 10.0 mi South 6.9 mph - N/A   Clear
5:35 PM 59.0 °F - 33.8 °F 39% 30.26 in 10.0 mi South 9.2 mph - N/A   Clear
5:55 PM 57.2 °F - 33.8 °F 41% 30.27 in 10.0 mi SSE 8.1 mph - N/A   Clear
6:15 PM 55.4 °F - 33.8 °F 44% 30.27 in 10.0 mi South 6.9 mph - N/A   Clear
6:35 PM 55.4 °F - 33.8 °F 44% 30.27 in 10.0 mi SSE 8.1 mph - N/A   Clear
6:55 PM 55.4 °F - 33.8 °F 44% 30.27 in 10.0 mi SSE 6.9 mph - N/A   Clear
7:15 PM 53.6 °F - 33.8 °F 47% 30.27 in 10.0 mi SSE 5.8 mph - N/A   Clear
7:35 PM 53.6 °F - 33.8 °F 47% 30.27 in 10.0 mi SSE 9.2 mph - N/A   Clear
7:55 PM 53.6 °F - 35.6 °F 51% 30.28 in 10.0 mi South 6.9 mph - N/A   Clear
8:15 PM 53.6 °F - 35.6 °F 51% 30.28 in 10.0 mi SSE 8.1 mph - N/A   Clear
8:35 PM 53.6 °F - 35.6 °F 51% 30.28 in 10.0 mi SSE 5.8 mph - N/A   Clear
8:55 PM 51.8 °F - 37.4 °F 58% 30.28 in 10.0 mi SSE 5.8 mph - N/A   Clear
9:15 PM 51.8 °F - 37.4 °F 58% 30.28 in 10.0 mi SSE 4.6 mph - N/A   Clear
9:35 PM 51.8 °F - 35.6 °F 54% 30.28 in 10.0 mi SSE 3.5 mph - N/A   Clear
9:55 PM 51.8 °F - 35.6 °F 54% 30.28 in 10.0 mi Calm Calm - N/A   Clear
10:15 PM 51.8 °F - 35.6 °F 54% 30.27 in 10.0 mi East 4.6 mph - N/A   Clear
10:35 PM 51.8 °F - 35.6 °F 54% 30.27 in 10.0 mi SE 3.5 mph - N/A   Clear
10:55 PM 51.8 °F - 35.6 °F 54% 30.27 in 10.0 mi Calm Calm - N/A   Clear
11:15 PM 51.8 °F - 35.6 °F 54% 30.26 in 10.0 mi Calm Calm - N/A   Clear
11:35 PM 51.8 °F - 35.6 °F 54% 30.26 in 10.0 mi South 5.8 mph - N/A   Clear
11:55 PM 51.8 °F - 35.6 °F 54% 30.26 in 10.0 mi South 4.6 mph - N/A   Clear